Simultaneous Nadir Overpasses (SNOs) Predictions

Prediction of SNOs near US between AQUA and NPP Satellite Orbit:

Table of predicted SNOs near US for the next 10.0 days since TLE Epoch: 2/22/2019
Index Date (AQUA) Time (AQUA) AQUA Lat,Lon Date (NPP) Time (NPP) NPP Lat,Lon Distance(km) Time Diff (sec)
1 02/23/2019 10:12:20 26.63,-125.00 02/23/2019 10:05:50 25.84,-126.01 133.56 390
2 02/26/2019 07:19:00 49.90, -75.96 02/26/2019 07:20:12 50.33, -78.23 168.70 72
3 02/26/2019 08:57:53 49.91,-100.68 02/26/2019 09:01:39 50.50,-103.53 213.14 226
4 02/28/2019 18:17:11 50.00, -80.19 02/28/2019 18:10:28 49.73, -81.79 118.16 403
5 02/28/2019 19:56:04 49.99,-104.91 02/28/2019 19:51:56 49.62,-107.11 163.38 248
6 02/28/2019 21:31:14 36.69,-124.99 02/28/2019 21:29:34 36.19,-127.59 239.44 100
7 03/03/2019 09:24:33 20.78,-114.04 03/03/2019 09:16:25 20.89,-114.56 54.50 488




NCC Satellite Simultaneous Nadir Overpasses (SNOs) Prediction Service
